Lake Oroville Weather Center

Moon Phase Calendar



Lake Oroville Water Level
Online Cameras

 


      

Current Conditions in Berry Creek
12/6/2022 7:59:04 PM

43°F
Feels Like 38
Clear
Humidity
80%
Pressure
30.12"
Wind
7.1 mph (NE)
Dew Point
37°F
UV Index
0/10 (Low)
Visibility
6 mi

Hourly Forecast

Date & Time Tue, Dec 6
7:00 PM
Tue, Dec 6
8:00 PM
Tue, Dec 6
9:00 PM
Tue, Dec 6
10:00 PM
Tue, Dec 6
11:00 PM
Wed, Dec 7
12:00 AM
Wed, Dec 7
1:00 AM
Wed, Dec 7
2:00 AM
Wed, Dec 7
3:00 AM
Wed, Dec 7
4:00 AM
Wed, Dec 7
5:00 AM
Wed, Dec 7
6:00 AM
Wed, Dec 7
7:00 AM
Wed, Dec 7
8:00 AM
Wed, Dec 7
9:00 AM
Wed, Dec 7
10:00 AM
Wed, Dec 7
11:00 AM
Wed, Dec 7
12:00 PM
Wed, Dec 7
1:00 PM
Wed, Dec 7
2:00 PM
Wed, Dec 7
3:00 PM
Wed, Dec 7
4:00 PM
Wed, Dec 7
5:00 PM
Wed, Dec 7
6:00 PM
Wed, Dec 7
7:00 PM
Wed, Dec 7
8:00 PM
Wed, Dec 7
9:00 PM
Wed, Dec 7
10:00 PM
Wed, Dec 7
11:00 PM
Thu, Dec 8
12:00 AM
Thu, Dec 8
1:00 AM
Thu, Dec 8
2:00 AM
Thu, Dec 8
3:00 AM
Thu, Dec 8
4:00 AM
Thu, Dec 8
5:00 AM
Thu, Dec 8
6:00 AM
Thu, Dec 8
7:00 AM
Thu, Dec 8
8:00 AM
Thu, Dec 8
9:00 AM
Thu, Dec 8
10:00 AM
Thu, Dec 8
11:00 AM
Thu, Dec 8
12:00 PM
Thu, Dec 8
1:00 PM
Thu, Dec 8
2:00 PM
Thu, Dec 8
3:00 PM
Thu, Dec 8
4:00 PM
Thu, Dec 8
5:00 PM
Thu, Dec 8
6:00 PM
Condition
Clear

Clear

Clear

Clear

Clear

Clear

Clear

Clear

Clear

Clear

Clear

Clear

Clear

Clear

Clear

Clear

Clear

Clear

Clear

Clear

Clear

Clear

Clear

Clear

Clouds

Clouds

Clouds

Clouds

Clouds

Clouds

Clouds

Clouds

Clouds

Clouds

Clouds

Clouds

Clouds

Clouds

Clouds

Clouds

Clouds

Clouds

Clouds

Rain

Clouds

Rain

Rain

Rain
Temperature 42°F43°F42°F41°F40°F39°F38°F37°F37°F36°F36°F36°F35°F37°F43°F47°F50°F51°F51°F51°F50°F47°F42°F41°F41°F41°F42°F41°F41°F40°F40°F42°F42°F43°F44°F44°F44°F44°F47°F48°F49°F50°F50°F50°F49°F47°F44°F44°F
Feels Like 38°F38°F38°F37°F36°F35°F33°F33°F32°F31°F31°F31°F30°F32°F41°F47°F49°F48°F48°F48°F49°F46°F40°F38°F37°F38°F38°F38°F37°F36°F36°F39°F39°F41°F42°F42°F41°F42°F45°F46°F46°F48°F48°F47°F46°F44°F42°F40°F
Cloudiness 4%4%4%4%3%2%2%2%2%2%2%2%2%2%1%1%0%1%1%1%1%1%1%4%11%20%29%34%83%51%43%53%56%63%100%100%100%100%100%100%100%100%100%100%100%100%100%100%
Visibility 6 mi6 mi6 mi6 mi6 mi6 mi6 mi6 mi6 mi6 mi6 mi6 mi6 mi6 mi6 mi6 mi6 mi6 mi6 mi6 mi6 mi6 mi6 mi6 mi6 mi6 mi6 mi6 mi6 mi6 mi6 mi6 mi6 mi6 mi6 mi6 mi6 mi6 mi6 mi6 mi6 mi6 mi6 mi6 mi6 mi6 mi3 mi3 mi
Precipitation 0%0%0%0%0%0%0%0%0%0%0%0%0%0%0%0%0%0%0%0%0%0%0%0%0%0%0%0%0%0%0%0%4%5%13%23%17%13%9%9%24%32%32%34%43%54%88%92%
Humidity 79%80%79%78%77%76%74%74%74%73%73%72%71%68%58%52%50%50%53%57%61%73%82%83%82%79%77%77%78%80%80%77%78%77%78%80%81%80%76%70%67%66%67%70%72%79%91%93%
Dew Point 36°F37°F36°F35°F34°F32°F29°F29°F28°F27°F27°F26°F26°F26°F28°F29°F30°F32°F33°F35°F36°F37°F36°F35°F34°F34°F33°F33°F33°F33°F33°F34°F34°F35°F36°F37°F37°F37°F38°F38°F37°F38°F38°F39°F39°F39°F41°F41°F
Pressure 30.12"30.12"30.12"30.12"30.15"30.15"30.15"30.15"30.15"30.15"30.15"30.18"30.18"30.21"30.21"30.21"30.21"30.18"30.18"30.18"30.18"30.18"30.21"30.24"30.24"30.27"30.27"30.27"30.27"30.27"30.27"30.27"30.27"30.27"30.27"30.27"30.27"30.27"30.24"30.24"30.24"30.21"30.15"30.12"30.09"30.09"30.06"30.06"
Wind Speed 6.8 mph7.1 mph6.8 mph6.5 mph6.4 mph6.5 mph6.3 mph6.3 mph6.1 mph6.2 mph6.1 mph5.8 mph5.9 mph5.4 mph3 mph1.3 mph3.2 mph4.1 mph5.1 mph5.1 mph4.2 mph3.2 mph4.1 mph4.9 mph5.2 mph5.1 mph5.2 mph5.5 mph5.5 mph5.6 mph4.7 mph4.3 mph4 mph3.8 mph3.6 mph3.9 mph4 mph4.4 mph3.7 mph5.3 mph7.4 mph9 mph9.4 mph8.1 mph7.2 mph6 mph4.4 mph7.6 mph
Wind
Direction
49°
NE
49°
NE
50°
NE
51°
NE
53°
NE
52°
NE
51°
NE
54°
NE
55°
NE
55°
NE
55°
NE
57°
ENE
58°
ENE
59°
ENE
64°
ENE
160°
SSE
204°
SSW
202°
SSW
207°
SSW
204°
SSW
192°
SSW
145°
SE
93°
E
75°
ENE
71°
ENE
74°
ENE
78°
ENE
80°
E
79°
E
79°
E
73°
ENE
85°
E
88°
E
95°
E
105°
ESE
105°
ESE
106°
ESE
105°
ESE
123°
ESE
157°
SSE
169°
S
172°
S
170°
S
169°
S
167°
SSE
173°
S
151°
SSE
142°
SE

Daily Forecast

Date High Low Precip. Humidity
Today
Dec 6

Rain
53 °F
39 °F
66%
65%
Wednesday
Dec 7

Clear
51 °F
35 °F
0%
50%
Thursday
Dec 8

Rain
50 °F
40 °F
100%
67%
Friday
Dec 9

Rain
45 °F
39 °F
100%
85%
Saturday
Dec 10

Rain
45 °F
40 °F
100%
97%
Sunday
Dec 11

Rain
46 °F
38 °F
100%
90%
Monday
Dec 12

Rain
42 °F
33 °F
59%
85%
Tuesday
Dec 13

Clouds
44 °F
30 °F
0%
65%
Wednesday
Dec 14

Clouds
48 °F
31 °F
18%
63%
Thursday
Dec 15

Rain
43 °F
39 °F
100%
97%
Friday
Dec 16

Clouds
50 °F
38 °F
0%
79%
Saturday
Dec 17

Rain
48 °F
42 °F
89%
88%
Sunday
Dec 18

Rain
52 °F
38 °F
62%
81%
Monday
Dec 19

Rain
50 °F
39 °F
47%
85%
Tuesday
Dec 20

Rain
51 °F
44 °F
100%
96%
Wednesday
Dec 21

Clouds
53 °F
39 °F
0%
68%

Temperature 8-14 Day Outlook



Precipitation 8-14 Day Outlook






About Us
Contact Us
Site Map
Search Site
Advertise With Us
   
Oroville.LakesOnline.com
THE LAKE OROVILLE WEBSITE

Copyright 2022, Lakes Online
Privacy    |    Legal